TimePDT,TemperatureF,Dew PointF,Humidity,Sea Level PressureIn,VisibilityMPH,Wind Direction,Wind SpeedMPH,Gust SpeedMPH,PrecipitationIn,Events,Conditions,WindDirDegrees,DateUTC
12:58 AM,56.8,41.9,57,29.56,10.0,Calm,Calm,-,N/A,,Scattered Clouds,0,2013-09-21 07:58:00
1:58 AM,55.8,43.3,63,29.58,10.0,SSW,8.1,-,N/A,,Mostly Cloudy,200,2013-09-21 08:58:00
2:58 AM,55.8,40.1,56,29.58,10.0,South,11.5,-,N/A,,Overcast,190,2013-09-21 09:58:00
3:58 AM,53.4,40.6,62,29.58,10.0,South,11.5,-,N/A,,Mostly Cloudy,180,2013-09-21 10:58:00
4:58 AM,52.9,42.6,68,29.62,10.0,SE,10.4,-,N/A,,Overcast,140,2013-09-21 11:58:00
5:58 AM,53.2,43.5,70,29.64,10.0,South,12.7,-,N/A,,Overcast,170,2013-09-21 12:58:00
6:58 AM,53.6,44.1,70,29.66,10.0,SSE,11.5,-,N/A,,Mostly Cloudy,160,2013-09-21 13:58:00
7:13 AM,53.6,44.6,72,29.69,10.0,South,11.5,-,N/A,Rain,Light Rain,180,2013-09-21 14:13:00
7:56 AM,51.8,48.2,88,29.68,10.0,SSW,8.1,-,N/A,,Overcast,200,2013-09-21 14:56:00
7:58 AM,51.8,48.2,88,29.67,10.0,SSW,9.2,-,0.00,,Overcast,200,2013-09-21 14:58:00
8:58 AM,53.1,49.1,86,29.70,10.0,SE,11.5,-,N/A,,Overcast,140,2013-09-21 15:58:00
9:58 AM,55.2,49.3,80,29.70,10.0,SSE,10.4,-,N/A,,Overcast,160,2013-09-21 16:58:00
10:58 AM,57.9,48.7,71,29.71,10.0,South,10.4,-,N/A,,Scattered Clouds,180,2013-09-21 17:58:00
11:58 AM,58.6,47.8,67,29.72,10.0,SSE,11.5,-,N/A,,Scattered Clouds,160,2013-09-21 18:58:00
12:58 PM,60.6,47.1,61,29.71,10.0,South,18.4,-,N/A,,Mostly Cloudy,180,2013-09-21 19:58:00
1:58 PM,61.7,46.8,58,29.70,10.0,South,12.7,-,N/A,,Scattered Clouds,170,2013-09-21 20:58:00
2:58 PM,63.7,46.0,53,29.69,10.0,South,11.5,-,N/A,,Partly Cloudy,190,2013-09-21 21:58:00
3:58 PM,64.9,43.9,46,29.67,10.0,South,9.2,-,N/A,,Partly Cloudy,180,2013-09-21 22:58:00
4:58 PM,63.5,43.2,47,29.67,10.0,South,10.4,-,N/A,,Partly Cloudy,170,2013-09-21 23:58:00
5:58 PM,61.7,43.3,51,29.68,10.0,SSE,9.2,-,N/A,,Clear,160,2013-09-22 00:58:00
6:58 PM,59.0,42.6,55,29.68,10.0,SSE,6.9,-,N/A,,Clear,160,2013-09-22 01:58:00
7:58 PM,54.5,42.6,64,29.70,10.0,South,6.9,-,N/A,,Clear,170,2013-09-22 02:58:00
8:58 PM,54.3,42.1,63,29.70,10.0,SSE,4.6,-,N/A,,Clear,160,2013-09-22 03:58:00
9:58 PM,51.4,42.8,72,29.69,10.0,SE,2.3,-,N/A,,Clear,140,2013-09-22 04:58:00
10:04 PM,51.8,42.8,71,29.69,8.0,SSE,3.5,-,N/A,,Clear,150,2013-09-22 05:04:00
10:13 PM,51.8,42.8,71,29.68,9.0,SSE,3.5,-,N/A,,Clear,160,2013-09-22 05:13:00
10:58 PM,50.4,42.8,75,29.69,10.0,South,2.3,-,N/A,,Clear,170,2013-09-22 05:58:00
11:58 PM,48.4,42.3,79,29.69,10.0,South,5.8,-,N/A,,Clear,170,2013-09-22 06:58:00